Regional Weather Roundup
Issued by NWS Albany, NY

Home | Current Version | Previous Version | Text Only | Print | Product List | Glossary On
Versions: 1 2 3 4 5 6 7 8 9 10 11 12 13 14 15 16 17 18 19 20 21 22 23 24 25 26 27 28 29 30 31 32 33 34 35 36 37 38 39 40 41 42 43 44 45 46 47 48 49 50
264
ASUS41 KALY 240410
RWRALY

NEW YORK STATE HOURLY WEATHER ROUNDUP
NATIONAL WEATHER SERVICE ALBANY NY
1200 AM EDT FRI MAR 24 2017

NOTE: "FAIR" INDICATES FEW OR NO CLOUDS BELOW 12,000 FEET WITH NO
SIGNIFICANT WEATHER AND/OR NO OBSTRUCTIONS TO VISIBILITY.

NYZ032-033-038>043-046>054-057>066-NYZ062>081-082-084-240500-
EAST


CITY           SKY/WX    TMP DP  RH WIND       PRES   REMARKS
ALBANY         MOCLDY    24   9  52 SW3       30.52S
GLENS FALLS    CLEAR     21  12  68 CALM      30.50R
POUGHKEEPSIE   PTCLDY    25  15  66 CALM      30.52S
NEWBURGH       CLEAR     32  12  43 W5        30.52F WCI  27
MONTGOMERY     CLEAR     25  14  63 CALM      30.51R
WHITE PLAINS   CLEAR     29  19  66 CALM      30.51F
ISLIP          PTCLDY    30  23  75 CALM      30.53F
NEW YORK CITY  PTCLDY    40  22  48 SW7       30.53F
CENTRAL PARK   CLEAR     38  20  48 S3        30.54F
$$

NYZ005>009-017-018-044>046-055-056-240500-
CENTRAL


CITY           SKY/WX    TMP DP  RH WIND       PRES   REMARKS
FULTON         CLOUDY    31  13  47 VRB6      30.38F WCI  25
SYRACUSE       CLOUDY    28  10  46 E8        30.40F WCI  20
ROME           CLOUDY    26  12  55 SE7       30.46F WCI  18
ELMIRA         PTCLDY    33   9  36 SE6       30.38F WCI  28
BINGHAMTON     CLOUDY    27   6  41 SE8       30.38F WCI  19
MONTICELLO     PTCLDY    21   7  53 CALM      30.48R
$$

NYZ026>034-041>043-087-240500-
NORTH


CITY           SKY/WX    TMP DP  RH WIND       PRES   REMARKS
WATERTOWN      CLOUDY    26  13  57 E3        30.39F
FORT DRUM      NOT AVBL
MASSENA        CLOUDY    29  15  56 S7        30.43F WCI  22
SARANAC LAKE   CLOUDY    18   6  59 CALM      30.35F
PLATTSBURGH    CLOUDY    27  10  49 S5        30.45F WCI  22
$$

NYZ001>004-010>016-019>021-085-240500-
WEST


CITY           SKY/WX    TMP DP  RH WIND       PRES   REMARKS
NIAGARA FALLS  CLOUDY    36  18  48 SE7       30.29F WCI  30
BUFFALO        CLOUDY    36  16  44 SE9       30.29F WCI  29
DUNKIRK        CLOUDY    35  17  47 NW5       30.28F WCI  31
JAMESTOWN      CLEAR     36   7  30 S9G17     30.26S WCI  29
WELLSVILLE     PTCLDY    35   6  29 VRB7      30.30F WCI  29
ROCHESTER      CLOUDY    33  15  47 SE7       30.32F WCI  27
PENN YAN       CLOUDY    30  18  60 W3        30.35F
$$

             KEY
       WCI = WIND CHILL INDEX
       VSB = VISIBILITY
       HX  = HEAT INDEX
$$




USA.gov is the U.S. government's official web portal to all federal, state and local government web resources and services.